SCP
1 1 1 1 1 1 1 2 2 2 1 1 1 1 0 0 0 0 0 0 0 1 1 1 1 1 1 1 2 2 2 2 2 2 1 1 1 1 1 2 2 2 1
1 1 1 1 1 1 1 1 2 2 1 1 1 1 0 0 0 0 0 0 0 0 1 1 1 1 1 1 2 2 2 2 2 2 2 2 1 1 1 1 1 1 1
0 1 1 1 1 1 1 1 1 1 1 1 1 1 1 0 0 0 0 0 0 0 0 1 1 1 1 1 2 2 2 2 2 2 2 2 1 1 1 1 1 1 1
0 0 0 1 1 1 1 1 1 1 1 1 1 1 1 0 0 0 0 0 0 0 0 0 0 1 1 1 2 2 2 2 2 2 1 1 1 1 1 1 1 1 1
0 1 1 1 1 0 0 0 0 1 1 1 1 1 1 0 0 0 0 0 0 0 0 0 0 0 0 1 1 1 2 2 1 1 1 1 1 1 1 1 0 0 0
1 1 1 1 1 1 1 0 0 0 0 0 0 0 0 0 0 0 0 0 0 0 0 0 0 0 0 0 1 1 1 1 1 1 1 1 0 0 0 0 0 0 0
1 2 2 1 1 1 1 1 1 1 1 0 0 0 0 0 0 0 0 0 0 0 0 0 0 0 0 1 1 1 1 1 1 1 0 0 0 0 0 0 0 0 0
1 2 2 2 2 2 2 1 1 1 1 1 0 0 0 0 0 0 0 0 0 0 0 0 0 0 0 1 1 1 1 1 0 0 0 0 0 0 0 0 0 0 0
1 2 2 2 2 2 2 2 1 1 1 1 1 0 0 0 0 0 0 0 0 0 0 0 0 0 0 1 1 1 1 1 0 0 0 0 0 0 0 0 0 0 0
1 1 2 2 2 2 2 2 2 1 2 2 1 1 0 0 0 0 0 0 0 0 0 0 0 0 0 1 1 1 1 1 0 0 0 0 0 0 0 0 0 1 1
1 1 1 1 2 2 2 2 1 2 2 2 2 1 1 1 0 1 1 1 1 0 0 0 0 0 0 1 1 1 1 0 0 0 0 0 0 0 0 0 0 1 1
1 1 2 2 2 2 2 2 1 2 2 2 2 2 1 1 1 1 1 1 1 1 0 0 0 0 0 0 1 0 0 0 0 0 1 1 0 0 0 0 0 0 1
1 1 2 2 2 2 2 2 2 2 2 2 2 2 1 1 1 1 1 1 1 1 0 0 0 0 0 0 0 0 0 0 0 0 1 0 0 0 0 0 0 0 0
1 1 1 2 2 2 2 2 2 2 2 2 2 2 1 1 1 1 1 1 1 1 0 0 0 0 0 0 0 0 0 0 0 0 0 0 0 0 0 0 0 0 0
1 1 1 1 1 2 2 2 3 3 3 2 2 2 2 1 1 1 1 1 1 1 1 0 0 0 0 0 0 0 0 0 0 1 0 0 0 0 0 0 0 0 0
0 0 1 1 1 1 1 2 2 2 2 2 2 2 2 2 2 1 1 1 1 1 1 0 0 0 0 0 0 0 0 0 0 0 0 0 0 0 0 0 0 0 0
0 0 0 0 1 1 1 2 2 2 2 2 2 2 2 2 2 2 2 1 1 1 1 1 0 0 0 0 0 0 0 0 0 0 0 0 0 0 0 0 0 0 0
0 0 0 0 0 1 1 2 3 3 3 2 2 2 2 2 2 2 2 2 2 1 1 1 1 0 0 0 0 0 0 0 0 0 0 0 0 0 0 0 1 1 1
0 0 0 0 0 0 1 2 3 3 3 2 2 2 2 2 2 2 2 2 2 2 1 1 1 1 1 1 0 0 0 0 0 0 0 0 0 0 0 0 1 1 1
0 0 0 0 0 0 1 1 2 3 3 2 2 2 2 2 2 2 2 2 2 2 2 1 1 1 1 1 1 0 0 0 0 0 0 0 0 0 0 0 0 0 1
0 0 0 0 0 0 1 1 2 2 2 2 2 2 3 2 2 2 2 2 3 3 2 2 2 2 2 1 1 0 0 0 0 0 0 0 0 0 0 0 0 0 0
0 0 0 0 0 1 1 1 1 2 2 2 2 3 3 2 2 2 2 2 3 3 3 2 3 3 2 1 1 0 0 0 0 0 0 0 0 0 0 0 0 0 0
0 0 0 0 0 1 1 1 1 2 2 2 2 3 2 2 2 3 3 3 3 3 3 3 3 3 2 1 1 0 0 0 0 0 0 0 0 0 0 0 0 0 0
0 0 0 0 0 1 1 1 2 2 2 2 2 2 2 2 2 2 3 3 3 3 3 3 3 3 2 1 1 1 0 0 0 0 0 0 0 0 0 0 0 0 0
0 0 0 0 0 0 1 1 1 1 2 2 2 2 2 2 2 2 2 2 3 3 3 3 3 3 3 2 1 1 1 0 0 0 0 0 0 0 0 0 0 0 0
0 0 0 0 0 0 1 1 1 1 1 2 2 2 1 2 2 2 2 2 2 3 3 3 3 3 3 2 2 1 1 0 0 0 0 0 0 0 0 0 0 0 0
Wind_Speed
12 13 13 12 11 10 9 9 9 8 7 7 6 5 4 4 3 3 3 3 4 4 3 3 3 4 5 5 6 7 7 7 7 6 8 9 9 9 8 8 6 7 9
15 14 14 12 11 10 9 9 9 8 7 6 6 5 5 4 4 3 3 3 3 3 3 2 2 3 3 4 5 6 6 5 4 3 5 7 9 9 9 10 11 6 8
16 14 13 12 11 10 9 9 8 8 7 6 6 5 4 4 4 3 3 2 2 2 2 2 2 2 3 4 5 4 4 4 4 4 2 2 6 9 9 9 9 9 8
16 13 12 13 11 10 9 8 8 7 7 6 5 5 4 4 3 3 3 2 2 2 2 2 2 2 3 4 3 2 2 3 5 6 2 3 5 9 8 8 8 8 7
14 13 14 13 11 10 8 8 7 7 6 6 5 4 4 3 3 3 2 2 2 2 2 2 2 3 3 4 3 1 1 4 6 4 4 5 5 7 8 8 8 7 7
13 14 13 12 10 9 8 7 7 6 6 5 5 5 4 4 3 3 2 2 2 2 2 2 3 3 3 3 3 2 3 5 6 2 3 5 5 7 8 8 8 7 7
13 15 14 13 11 9 8 7 7 6 6 6 5 5 4 4 4 3 3 3 2 2 2 3 3 3 4 3 3 2 4 5 5 2 4 6 5 7 7 8 7 7 7
11 14 14 15 13 11 9 8 7 7 7 6 6 6 5 5 5 4 4 3 3 2 2 3 3 3 3 3 3 3 5 6 5 2 7 6 7 7 7 6 6 6 6
8 11 12 12 12 12 11 10 9 8 8 8 8 7 7 6 6 6 5 5 4 3 3 3 4 4 4 4 4 4 5 6 6 1 8 5 7 7 6 6 5 6 6
4 4 8 10 11 10 10 13 12 11 10 10 9 9 9 8 8 8 8 7 6 6 5 5 5 5 5 5 5 5 6 6 5 1 6 6 8 7 6 5 5 5 5
7 6 5 3 4 7 10 12 12 12 11 10 9 11 9 7 8 8 11 11 10 8 7 6 6 7 7 7 8 8 6 4 4 3 5 9 9 7 6 5 5 5 5
10 10 9 8 6 4 1 6 6 7 7 7 6 7 7 7 6 8 11 14 13 10 9 9 9 8 7 5 8 8 4 7 4 4 6 11 9 7 5 5 5 5 5
9 10 10 9 8 6 4 2 1 1 3 5 6 6 6 6 4 4 5 8 8 9 6 7 7 6 7 6 5 6 7 5 2 5 6 10 8 7 6 5 5 4 4
8 8 9 9 8 7 5 3 1 1 0 1 4 5 5 4 4 4 4 6 6 5 6 6 6 9 11 10 9 9 8 3 4 5 6 10 8 7 6 6 5 5 4
4 4 5 5 6 6 5 3 3 1 0 1 2 2 4 4 4 4 4 5 7 7 7 5 8 9 9 7 8 8 6 5 7 7 5 9 9 7 6 6 6 6 5
4 4 3 4 4 4 3 3 3 3 2 1 2 3 3 4 4 3 4 3 4 5 5 6 6 5 4 2 2 3 5 5 6 9 7 7 9 8 6 6 6 6 6
7 6 5 4 2 3 3 3 3 3 3 2 2 3 2 3 4 3 3 3 3 3 4 4 6 4 3 3 2 1 2 4 5 7 9 6 6 7 8 7 6 6 6
9 8 7 7 5 4 4 3 3 3 3 3 3 2 2 3 3 3 3 3 3 2 2 2 2 2 2 2 2 2 2 3 3 4 7 8 7 6 7 8 7 6 6
8 8 9 8 6 5 5 4 4 4 4 3 3 3 3 4 4 3 3 3 3 2 2 2 1 1 1 2 2 3 2 3 4 4 5 7 8 8 7 8 9 7 6
8 9 10 8 7 6 4 4 3 4 3 3 3 4 5 4 4 3 3 4 3 2 2 1 1 1 1 1 2 2 3 3 3 3 4 3 6 8 9 8 6 6 8
10 10 10 10 8 6 4 4 4 4 3 3 4 5 5 5 5 5 4 4 4 4 4 4 2 2 2 1 1 1 1 2 3 3 3 2 3 6 9 10 7 6 5
10 10 11 10 9 7 5 5 5 5 4 5 4 4 5 6 7 7 7 5 5 5 6 5 4 2 2 1 1 1 1 2 2 3 3 4 3 4 6 9 8 9 8
11 11 11 10 10 8 8 5 6 5 4 4 5 4 4 5 6 7 7 6 7 6 6 7 6 6 5 3 3 3 3 3 1 2 2 3 3 3 4 4 6 8 10
12 11 11 11 11 9 8 6 7 6 6 6 5 4 5 5 5 6 6 7 7 6 7 7 7 6 6 5 3 3 2 3 3 2 2 1 2 2 2 2 3 6 8
10 10 9 10 10 9 9 8 6 6 5 5 5 5 5 4 4 4 5 5 6 6 7 8 8 8 7 6 5 3 3 2 2 3 2 1 1 1 1 0 1 2 5
8 9 9 9 9 9 9 8 7 7 7 7 6 5 4 3 3 4 4 4 4 5 7 7 8 9 8 8 6 5 4 4 4 3 3 2 1 1 1 1 1 1 2
Wind_Direction
125 124 131 123 115 109 106 105 108 114 118 121 121 117 111 104 91 76 62 51 42 37 31 28 31 36 41 44 47 45 47 47 53 66 75 74 69 63 52 41 66 84 87
123 126 133 129 124 119 114 112 112 114 116 118 121 120 114 107 100 91 77 64 51 44 41 39 31 37 48 54 57 48 44 41 36 56 88 84 71 63 57 57 67 80 84
121 129 136 136 133 130 126 123 122 120 121 122 123 122 118 113 108 103 94 84 74 66 66 62 53 64 73 68 65 50 35 9 346 340 329 96 86 66 62 63 69 74 80
126 140 138 140 140 138 137 136 134 132 131 130 130 130 127 124 120 115 111 108 101 96 94 89 89 96 101 93 86 67 22 325 316 327 16 76 78 70 65 66 69 73 78
129 130 129 144 144 144 145 146 144 143 141 140 140 141 141 138 135 130 123 118 114 114 116 109 103 116 119 121 124 121 286 290 305 322 85 86 74 70 66 66 67 72 77
126 123 135 145 148 152 155 158 158 156 157 156 156 157 155 157 157 153 146 137 125 122 126 127 131 137 140 142 155 194 261 278 297 307 101 102 90 75 69 67 70 71 77
130 130 143 150 156 162 168 171 169 171 173 173 172 170 171 175 177 172 168 159 146 137 136 143 151 152 156 160 175 210 252 272 270 237 114 99 94 84 76 70 72 76 81
127 136 144 158 163 171 179 182 183 187 188 190 189 188 190 192 189 188 182 173 166 162 157 159 166 168 166 174 191 219 252 281 284 173 111 98 100 90 82 79 75 77 84
124 138 151 163 171 179 185 189 192 197 199 201 202 200 203 206 205 202 195 189 183 180 183 180 179 181 183 192 205 226 251 267 286 243 119 108 109 99 91 87 83 80 83
81 113 153 164 172 179 188 195 197 200 202 206 208 207 209 212 214 211 204 200 196 194 196 195 194 196 200 206 215 231 253 280 269 151 111 118 116 108 100 94 91 88 88
31 26 40 107 164 186 187 186 193 202 205 206 210 213 211 214 211 208 215 192 194 199 202 204 205 208 212 216 222 230 246 250 245 115 106 126 127 119 113 108 104 99 97
22 16 19 20 19 356 312 163 183 192 193 204 211 204 207 225 222 211 198 185 191 198 204 211 214 216 222 217 218 224 235 237 224 131 126 136 134 133 130 125 118 114 110
14 14 9 5 7 12 3 10 175 172 174 200 217 206 208 226 239 212 174 179 190 198 207 209 214 222 220 219 194 200 224 227 171 119 135 140 141 146 148 144 137 130 126
13 6 3 359 357 355 356 352 351 25 141 231 220 208 202 222 235 230 191 185 188 193 205 195 210 217 222 215 195 205 204 185 140 121 142 145 147 157 164 162 159 153 146
18 357 359 354 354 347 347 335 337 341 64 271 264 212 194 204 226 241 229 198 194 194 198 206 211 224 220 209 196 203 186 178 143 130 138 153 153 164 174 176 173 170 167
3 355 354 346 342 334 334 327 320 328 320 279 257 242 219 203 210 227 247 225 214 207 194 199 221 243 217 228 226 188 160 157 145 138 145 155 161 165 172 178 182 180 178
352 345 344 322 317 317 319 311 307 297 288 279 275 263 246 214 207 215 241 244 239 234 221 212 226 234 191 193 236 252 155 160 157 150 149 157 162 172 176 177 177 182 186
349 339 329 320 326 317 299 286 276 271 264 257 260 271 274 253 221 198 225 238 237 242 258 238 269 258 187 178 188 204 188 154 161 152 155 162 163 168 178 181 177 180 187
340 331 323 323 320 310 301 286 272 263 254 247 239 236 243 251 240 210 206 223 236 225 228 231 234 266 242 198 201 194 189 173 176 179 185 181 161 157 162 175 176 176 181
340 335 327 323 319 317 306 296 287 279 271 260 242 228 226 231 243 239 214 209 211 222 241 226 220 259 269 227 230 207 186 181 171 181 203 183 161 161 157 162 166 180 183
348 340 330 327 327 325 321 314 310 301 295 284 264 250 227 222 227 232 232 214 200 196 204 214 206 224 247 281 275 304 259 196 179 183 194 194 191 168 157 165 174 166 172
345 339 333 333 333 332 323 314 302 298 291 281 275 266 247 229 220 227 224 216 204 198 197 204 201 199 216 225 174 166 298 306 257 198 185 192 205 171 169 176 173 166 165
352 346 339 340 338 335 330 322 314 305 293 285 285 281 267 254 236 227 225 219 207 199 198 200 198 195 201 212 199 169 173 207 255 288 220 192 210 197 186 189 180 166 162
355 351 347 347 346 344 337 327 319 307 298 293 291 286 283 269 257 241 233 225 215 205 199 198 196 194 192 206 213 210 198 160 159 221 280 258 238 216 194 191 188 176 158
357 357 353 354 353 350 346 339 329 320 307 303 300 296 292 284 275 265 246 232 220 210 203 200 197 194 198 200 193 189 201 201 188 161 195 263 294 295 331 256 187 158 148
2 1 359 2 360 356 354 352 346 336 332 331 326 315 308 304 294 280 264 247 231 218 211 205 204 199 202 202 198 194 185 177 184 175 176 189 208 288 325 339 16 61 108